Agassiz, British Columbia

6:00 PM PDT on May 25, 2018 (GMT -0700)
Agassiz

Weather History for CWZA - February, 2012

Change the Weather History Date:

Wednesday, February 1, 2012

  Actual Average Record
Temperature  
Mean Temperature 40 °F -  
Max Temperature 43 °F 46 °F - ()
Min Temperature 35 °F 34 °F - ()
Degree Days  
Heating Degree Days 26    
Moisture  
Dew Point 38 °F    
Average Humidity 96    
Maximum Humidity 100    
Minimum Humidity 85    
Precipitation  
Precipitation 0.43 in 0.23 in - ()
Sea Level Pressure  
Sea Level Pressure 30.13 in    
Wind  
Wind Speed 1 mph ()    
Max Wind Speed 5 mph    
Max Gust Speed -    
T = Trace of Precipitation, MM = Missing Value Source: Averaged Metar Reports

Daily Weather History Graph

Daily Weather History Graph

Search for Another Location

Airport or City:

Astronomy

Feb. 01, 2012 Rise Set
Actual Time 7:38 AM PST 5:03 PM PST
Civil Twilight 7:04 AM PST 5:37 PM PST
Nautical Twilight 6:26 AM PST 6:15 PM PST
Astronomical Twilight 5:49 AM PST 6:52 PM PST
Moon 11:25 AM PST (2/1) 2:37 AM PST (2/1)
Length of Visible Light 10h 32m
Length of Day
9h 24m
Waxing Gibbous, 65% of the Moon is Illuminated
Feb 1
Waxing Gibbous
Feb 7
Full
Feb 14
Last Quarter
Feb 21
New
Feb 29
First Quarter

Hourly Weather History & Observations

Time (PST) Temp. Windchill Dew Point Humidity Pressure Visibility Wind Dir Wind Speed Gust Speed Precip Events Conditions
12:00 AM 39.7 °F - 39.0 °F 97% 29.88 in - NW 1.2 mph - 0.01 in   Unknown
1:00 AM 39.6 °F - 39.0 °F 98% 29.88 in - ESE 1.2 mph - 0.01 in   Unknown
2:00 AM 39.2 °F - 38.7 °F 98% 29.88 in - South 1.2 mph - 0.03 in   Unknown
3:00 AM 38.8 °F - 38.3 °F 98% 29.88 in - WNW 1.2 mph - 0.08 in   Unknown
4:00 AM 39 °F - 38 °F 96% 29.89 in - SE 3.5 mph - -  
4:00 AM 38.7 °F 36.3 °F 38.3 °F 99% 29.89 in - SE 3.5 mph - 0.08 in   Unknown
5:00 AM 38.8 °F 35.4 °F 38.5 °F 99% 29.91 in - SE 4.6 mph - 0.16 in   Unknown
6:00 AM 37.8 °F - 37.2 °F 98% 29.94 in - Calm Calm - 0.12 in   Unknown
7:00 AM 37.2 °F - 36.9 °F 99% 29.96 in - East 2.3 mph - 0.06 in   Unknown
8:00 AM 37.2 °F - 36.9 °F 99% 29.98 in - Calm Calm - 0.05 in   Unknown
9:00 AM 37.2 °F - 36.9 °F 99% 30.01 in - Calm Calm - 0.01 in   Unknown
10:00 AM 38 °F - 37 °F 96% 30.05 in - North 1.2 mph - -  
10:00 AM 37.6 °F - 37.2 °F 99% 30.05 in - North 1.2 mph - 0.04 in   Unknown
11:00 AM 39.7 °F - 39.4 °F 99% 30.10 in - NE 1.2 mph - 0.01 in   Unknown
12:00 PM 43.9 °F - 40.1 °F 87% 30.14 in - North 2.3 mph - N/A   Unknown
1:00 PM 42.8 °F - 38.5 °F 85% 30.18 in - East 1.2 mph - 0.01 in   Unknown
2:00 PM 42.8 °F - 39.4 °F 88% 30.21 in - NNE 2.3 mph - N/A   Unknown
3:00 PM 42.3 °F - 40.3 °F 93% 30.24 in - WSW 1.2 mph - N/A   Unknown
4:00 PM 42 °F - 41 °F 94% 30.27 in - NE 2.3 mph - -  
4:00 PM 42.1 °F - 40.8 °F 95% 30.27 in - NE 2.3 mph - N/A   Unknown
5:00 PM 41.2 °F - 39.2 °F 93% 30.29 in - NW 2.3 mph - N/A   Unknown
6:00 PM 39.7 °F - 38.7 °F 96% 30.32 in - SE 1.2 mph - N/A   Unknown
7:00 PM 38.5 °F - 37.6 °F 97% 30.35 in - ENE 1.2 mph - N/A   Unknown
8:00 PM 37.9 °F - 37.2 °F 97% 30.37 in - South 2.3 mph - N/A   Unknown
9:00 PM 36.9 °F - 36.3 °F 98% 30.40 in - Calm Calm - N/A   Unknown
10:00 PM 36 °F - 36 °F 100% 30.43 in - ENE 1.2 mph - -  
10:00 PM 36.3 °F - 36.0 °F 99% 30.43 in - ENE 1.2 mph - N/A   Unknown
11:00 PM 35.1 °F - 34.7 °F 99% 30.45 in - SSE 2.3 mph - N/A   Unknown